Terminal Aerodrome Forecast
Issued by NWS Portland, OR

Home | Current Version | Previous Version | Text Only | Print | Product List | Glossary On
Versions: 1 2 3 4 5 6 7 8 9 10 11 12 13 14 15 16 17 18 19 20 21 22 23 24 25 26 27 28 29 30 31 32 33 34 35 36 37 38 39 40 41 42 43 44
813
FTUS46 KPQR 160539
TAFHIO
TAF
KHIO 160539Z 1606/1706 VRB03KT P6SM -RA BKN035 OVC050
     FM161000 VRB03KT P6SM VCSH SCT015 BKN040 BKN060
     FM161800 VRB04KT P6SM OVC070=

USA.gov is the U.S. government's official web portal to all federal, state and local government web resources and services.